Location: Aalen
(48.8330°N, 10.1000°E)
Time: 19:00:15
(UTC+02:00)

Transit 4A - Pass Details

Date: 04 August 2021
Orbit: 871 x 974 km, 66.8° (Epoch: 16 September)

Event Time Altitude Azimuth Distance (km) Brightness Sun altitude
Rises 00:57:56 0° 214° (SW) 3,486 - -23.6°
Reaches altitude 10° 01:00:26 10° 215° (SW) 2,539 - -23.7°
Exits shadow 01:04:31 47° 217° (SW) 1,146 8.0 -23.8°
Maximum altitude 01:06:19 88° 305° (NW) 882 7.7 -23.8°
Drops below altitude 10° 01:12:10 10° 35° (NE) 2,528 10.8 -23.9°
Sets 01:14:39 0° 36° (NE) 3,470 11.7 -23.9°
